Annapolis Naval Academy, MD

4:59 AM EDT on September 20, 2017 (GMT -0400)
Annapolis Naval Academy

Weather History for KNAK - November, 2011

Change the Weather History Date:

Wednesday, November 2, 2011

  Actual Average (KBWI) Record (KBWI)
Temperature  
Mean Temperature 50 °F -  
Max Temperature 57 °F 66 °F 84 °F (1950)
Min Temperature 42 °F 45 °F 29 °F (1976)
Degree Days  
Heating Degree Days 16    
Moisture  
Dew Point 43 °F    
Average Humidity 79    
Maximum Humidity 93    
Minimum Humidity 55    
Precipitation  
Precipitation 0.00 in - - ()
Sea Level Pressure  
Sea Level Pressure 30.36 in    
Wind  
Wind Speed 2 mph (SE)    
Max Wind Speed 10 mph    
Max Gust Speed -    
Visibility 7 miles    
Events      
Averages and records for this station are not official NWS values.
T = Trace of Precipitation, MM = Missing Value Source: NWS Daily Summary

Daily Weather History Graph

Daily Weather History Graph

Search for Another Location

Airport or City:

Trip Planner

Search our weather history database for the weather conditions in past years. The results will help you decide how hot, cold, wet, or windy it might be!

Date:

Astronomy

Nov. 02, 2011 Rise Set
Actual Time 7:34 AM EDT 6:04 PM EDT
Civil Twilight 7:06 AM EDT 6:32 PM EDT
Nautical Twilight 6:34 AM EDT 7:03 PM EDT
Astronomical Twilight 6:03 AM EDT 7:34 PM EDT
Moon 1:52 PM EDT (11/2) No Moon Set
Length of Visible Light 11h 25m
Length of Day
10h 30m
Waxing Crescent, 50% of the Moon is Illuminated
Nov 2
Waxing Crescent
Nov 2
First Quarter
Nov 10
Full
Nov 18
Last Quarter
Nov 25
New

Hourly Weather History & Observations

Time (EDT) Temp. Dew Point Humidity Pressure Visibility Wind Dir Wind Speed Gust Speed Precip Events Conditions
12:54 AM 45.0 °F 42.1 °F 90% 30.36 in 5.0 mi Calm Calm - N/A   Clear
1:54 AM 44.1 °F 42.1 °F 93% 30.36 in 5.0 mi Calm Calm - N/A   Clear
2:54 AM 43.0 °F 41.0 °F 93% 30.36 in 4.0 mi Calm Calm - N/A   Clear
3:54 AM 42.1 °F 39.9 °F 92% 30.36 in 4.0 mi Calm Calm - N/A   Clear
4:54 AM 43.0 °F 41.0 °F 93% 30.37 in 4.0 mi Calm Calm - N/A   Clear
5:54 AM 42.1 °F 39.9 °F 92% 30.39 in 4.0 mi Calm Calm - N/A   Clear
6:54 AM 42.1 °F 39.9 °F 92% 30.40 in 4.0 mi Calm Calm - N/A   Clear
7:54 AM 43.0 °F 41.0 °F 93% 30.43 in 3.0 mi Calm Calm - N/A   Clear
8:02 AM 42.8 °F 41.0 °F 93% 30.42 in 2.5 mi Calm Calm - N/A   Clear
8:54 AM 48.0 °F 45.0 °F 89% 30.44 in 4.0 mi Calm Calm - N/A   Clear
9:54 AM 50.0 °F 44.1 °F 80% 30.44 in 6.0 mi Calm Calm - N/A   Haze
10:54 AM 54.0 °F 46.0 °F 75% 30.43 in 8.0 mi SE 4.6 mph - N/A   Clear
11:54 AM 54.0 °F 48.0 °F 80% 30.43 in 6.0 mi SE 6.9 mph - N/A   Haze
12:54 PM 55.0 °F 46.0 °F 72% 30.40 in 10.0 mi ESE 6.9 mph - N/A   Clear
1:54 PM 55.9 °F 43.0 °F 62% 30.37 in 10.0 mi ESE 10.4 mph - N/A   Clear
2:54 PM 57.0 °F 42.1 °F 57% 30.35 in 10.0 mi SE 9.2 mph - N/A   Clear
3:54 PM 57.0 °F 42.1 °F 57% 30.33 in 10.0 mi SE 9.2 mph - N/A   Clear
4:54 PM 57.0 °F 42.1 °F 57% 30.32 in 10.0 mi SE 9.2 mph - N/A   Clear
5:54 PM 55.0 °F 39.0 °F 55% 30.32 in 10.0 mi SSE 5.8 mph - N/A   Clear
6:54 PM 54.0 °F 39.9 °F 59% 30.31 in 10.0 mi South 3.5 mph - N/A   Clear
7:54 PM 52.0 °F 45.0 °F 77% 30.31 in 10.0 mi Calm Calm - N/A   Clear
8:54 PM 50.0 °F 46.0 °F 86% 30.31 in 10.0 mi Calm Calm - N/A   Clear
9:54 PM 48.9 °F 45.0 °F 86% 30.30 in 9.0 mi Calm Calm - N/A   Clear
10:54 PM 48.0 °F 42.1 °F 80% 30.30 in 10.0 mi Calm Calm - N/A   Clear
11:54 PM 46.0 °F 39.9 °F 79% 30.27 in 10.0 mi Calm Calm - N/A   Clear